AB7AZ Weather Reports


time (UTC)temp
C
wind
direction
speed
KPH
gust
KPH
rain 1hr
cm
rain 24hr
cm
rain mn
cm
humidity
%
barometer
mb
20260509053412 23 356 0.0 0.0 0.00 0.00 0.00 17 1007.2
20260509052400 25 356 0.0 0.0 0.00 0.00 0.00 16 1007.2
20260509051418 25 7 0.0 0.0 0.00 0.00 0.00 16 1007.2
20260509050410 25 7 0.0 0.0 0.00 0.00 0.00 16 1007.1
20260509045340 25 7 0.0 0.0 0.00 0.00 0.00 16 1007.0
20260509043211 28 334 0.0 0.0 0.00 0.00 0.00 14 1006.9
20260509042156 30 334 3.2 8.0 0.00 0.00 0.00 13 1006.8
20260509041208 30 45 0.0 6.4 0.00 0.00 0.00 12 1006.6
20260509040224 30 28 0.0 6.4 0.00 0.00 0.00 12 1006.4
20260509035235 31 357 0.0 6.4 0.00 0.00 0.00 12 1006.3
20260509034252 31 30 0.0 12.9 0.00 0.00 0.00 12 1006.1
20260509033256 31 79 0.0 0.0 0.00 0.00 0.00 12 1006.0
20260509032230 31 82 0.0 0.0 0.00 0.00 0.00 12 1006.0
20260509031158 31 75 0.0 0.0 0.00 0.00 0.00 12 1005.9
20260509030216 31 46 0.0 3.2 0.00 0.00 0.00 12 1005.8
20260509025216 32 146 3.2 12.9 0.00 0.00 0.00 12 1005.6
20260509023052 32 89 6.4 17.7 0.00 0.00 0.00 11 1005.4
20260509022054 33 242 9.7 20.9 0.00 0.00 0.00 11 1005.2
20260509021053 33 207 12.9 25.7 0.00 0.00 0.00 11 1005.1
20260509020103 33 222 12.9 25.7 0.00 0.00 0.00 11 1005.1
20260509015116 33 214 6.4 25.7 0.00 0.00 0.00 11 1005.0
20260509014058 33 255 9.7 25.7 0.00 0.00 0.00 11 1004.9
20260509013106 33 252 9.7 25.7 0.00 0.00 0.00 11 1004.9
20260509012107 33 235 12.9 25.7 0.00 0.00 0.00 11 1004.9
20260509011101 34 257 4.8 22.5 0.00 0.00 0.00 11 1005.0
20260509010058 34 212 9.7 25.7 0.00 0.00 0.00 11 1005.1
20260509005036 34 252 11.3 25.7 0.00 0.00 0.00 11 1005.2
20260509004054 35 243 11.3 22.5 0.00 0.00 0.00 11 1005.1
20260509003025 35 233 14.5 30.6 0.00 0.00 0.00 12 1005.2
20260509002006 35 232 9.7 20.9 0.00 0.00 0.00 12 1005.3
20260509000935 35 225 9.7 20.9 0.00 0.00 0.00 11 1005.3
20260508235950 35 237 6.4 19.3 0.00 0.00 0.00 11 1005.4
20260508235009 35 248 11.3 20.9 0.00 0.00 0.00 12 1005.5
20260508231727 35 227 12.9 24.1 0.00 0.00 0.00 12 1005.9
20260508230718 34 229 11.3 29.0 0.00 0.00 0.00 13 1006.0
20260508225656 34 233 14.5 29.0 0.00 0.00 0.00 12 1006.1
20260508224643 34 217 9.7 27.4 0.00 0.00 0.00 13 1006.3
20260508222545 33 249 11.3 29.0 0.00 0.00 0.00 14 1006.6
20260508221521 33 240 11.3 25.7 0.00 0.00 0.00 13 1006.9
20260508220515 33 170 9.7 24.1 0.00 0.00 0.00 13 1007.1
20260508215447 33 225 11.3 20.9 0.00 0.00 0.00 13 1007.2
20260508214449 33 227 11.3 29.0 0.00 0.00 0.00 14 1007.4
20260508213501 33 166 11.3 29.0 0.00 0.00 0.00 14 1007.6
20260508212458 33 210 11.3 20.9 0.00 0.00 0.00 14 1007.7
20260508211458 33 212 11.3 30.6 0.00 0.00 0.00 14 1007.9
20260508210458 32 205 9.7 30.6 0.00 0.00 0.00 14 1008.1
20260508205456 33 269 12.9 25.7 0.00 0.00 0.00 14 1008.2
20260508204451 33 199 6.4 20.9 0.00 0.00 0.00 14 1008.1
20260508203445 33 268 9.7 24.1 0.00 0.00 0.00 13 1008.3
20260508202450 32 220 9.7 24.1 0.00 0.00 0.00 13 1008.4
20260508201439 32 238 6.4 14.5 0.00 0.00 0.00 13 1008.4
20260508194240 32 266 6.4 16.1 0.00 0.00 0.00 14 1009.0
20260508192055 31 165 6.4 16.1 0.00 0.00 0.00 15 1009.2
20260508191102 31 180 4.8 16.1 0.00 0.00 0.00 15 1009.4
20260508190048 31 232 4.8 14.5 0.00 0.00 0.00 15 1009.4
20260508185058 31 234 4.8 14.5 0.00 0.00 0.00 15 1009.5
20260508184111 31 222 4.8 12.9 0.00 0.00 0.00 16 1009.7
20260508181925 30 196 6.4 17.7 0.00 0.00 0.00 17 1010.1
20260508180855 30 153 4.8 17.7 0.00 0.00 0.00 17 1010.0
20260508175833 30 205 4.8 14.5 0.00 0.00 0.00 17 1010.2
20260508174804 29 199 6.4 14.5 0.00 0.00 0.00 17 1010.2
20260508173814 30 220 1.6 9.7 0.00 0.00 0.00 17 1010.1
20260508172834 29 235 4.8 14.5 0.00 0.00 0.00 17 1010.2
20260508171846 28 188 3.2 16.1 0.00 0.00 0.00 18 1010.3
20260508170832 29 210 3.2 16.1 0.00 0.00 0.00 17 1010.5
20260508165822 28 246 4.8 9.7 0.00 0.00 0.00 17 1010.5
20260508164800 28 124 4.8 11.3 0.00 0.00 0.00 18 1010.5
20260508163820 28 172 4.8 11.3 0.00 0.00 0.00 18 1010.6
20260508162822 28 198 3.2 11.3 0.00 0.00 0.00 18 1010.6
20260508161846 27 231 4.8 9.7 0.00 0.00 0.00 18 1010.7
20260508160857 27 217 1.6 9.7 0.00 0.00 0.00 18 1010.6
20260508155852 27 218 1.6 1.6 0.00 0.00 0.00 18 1010.7
20260508154827 27 227 1.6 6.4 0.00 0.00 0.00 18 1010.6
20260508153814 27 207 0.0 3.2 0.00 0.00 0.00 18 1010.6
20260508152835 27 259 0.0 0.0 0.00 0.00 0.00 19 1010.6
20260508150659 27 216 0.0 0.0 0.00 0.00 0.00 19 1010.7
20260508145654 26 54 0.0 0.0 0.00 0.00 0.00 19 1010.8
20260508144701 25 330 0.0 1.6 0.00 0.00 0.00 20 1010.9
20260508142543 23 316 4.8 8.0 0.00 0.00 0.00 22 1011.0
20260508141556 22 5 3.2 8.0 0.00 0.00 0.00 22 1010.9
20260508140602 22 349 3.2 6.4 0.00 0.00 0.00 22 1010.7
20260508135549 21 350 0.0 0.0 0.00 0.00 0.00 23 1010.6
20260508134555 21 8 1.6 0.0 0.00 0.00 0.00 24 1010.6
20260508133619 20 12 4.8 9.7 0.00 0.00 0.00 25 1010.4
20260508132605 19 323 6.4 11.3 0.00 0.00 0.00 24 1010.4
20260508131604 19 4 6.4 12.9 0.00 0.00 0.00 24 1010.4
20260508130545 18 326 11.3 16.1 0.00 0.00 0.00 24 1010.3
20260508125556 18 323 8.0 16.1 0.00 0.00 0.00 24 1010.1
20260508124559 18 304 0.0 9.7 0.00 0.00 0.00 26 1009.8
20260508123624 17 42 0.0 0.0 0.00 0.00 0.00 27 1009.7
20260508122557 18 27 0.0 6.4 0.00 0.00 0.00 25 1009.6
20260508121546 18 92 1.6 1.6 0.00 0.00 0.00 25 1009.6
20260508120547 18 319 3.2 9.7 0.00 0.00 0.00 24 1009.5
20260508115558 17 19 0.0 0.0 0.00 0.00 0.00 26 1009.5
20260508113432 18 49 0.0 3.2 0.00 0.00 0.00 25 1009.6
20260508112440 18 315 0.0 0.0 0.00 0.00 0.00 24 1009.5
20260508111419 17 34 0.0 0.0 0.00 0.00 0.00 25 1009.4
20260508110421 17 35 0.0 0.0 0.00 0.00 0.00 24 1009.3
20260508105435 18 24 0.0 0.0 0.00 0.00 0.00 23 1009.3
20260508104406 19 26 1.6 4.8 0.00 0.00 0.00 22 1009.2
20260508103431 20 51 1.6 0.0 0.00 0.00 0.00 21 1009.3
20260508102452 20 327 4.8 9.7 0.00 0.00 0.00 20 1009.2
20260508101431 20 15 4.8 9.7 0.00 0.00 0.00 19 1009.2
20260508095334 20 357 1.6 6.4 0.00 0.00 0.00 19 1009.2
20260508094320 20 23 0.0 0.0 0.00 0.00 0.00 19 1009.1
20260508092142 20 336 3.2 9.7 0.00 0.00 0.00 20 1009.0
20260508091142 18 52 0.0 3.2 0.00 0.00 0.00 21 1009.0
20260508090111 19 23 0.0 0.0 0.00 0.00 0.00 20 1009.0
20260508085048 20 34 0.0 0.0 0.00 0.00 0.00 20 1009.1
20260508084048 20 329 0.0 8.0 0.00 0.00 0.00 20 1009.2
20260508083048 18 34 0.0 0.0 0.00 0.00 0.00 21 1009.2
20260508080904 20 26 0.0 3.2 0.00 0.00 0.00 20 1009.2
20260508074735 20 15 0.0 0.0 0.00 0.00 0.00 20 1009.3
20260508073719 19 48 0.0 0.0 0.00 0.00 0.00 20 1009.4
20260508072738 19 48 0.0 0.0 0.00 0.00 0.00 20 1009.4
20260508071745 20 33 0.0 0.0 0.00 0.00 0.00 20 1009.4
20260508070715 20 23 0.0 0.0 0.00 0.00 0.00 19 1009.5
20260508065644 20 30 0.0 0.0 0.00 0.00 0.00 20 1009.3
20260508064612 21 25 0.0 0.0 0.00 0.00 0.00 18 1009.3
20260508063545 21 25 0.0 0.0 0.00 0.00 0.00 18 1009.3
20260508062602 22 25 0.0 0.0 0.00 0.00 0.00 18 1009.3
20260508060433 21 25 0.0 1.6 0.00 0.00 0.00 18 1009.3
20260508055406 21 359 0.0 0.0 0.00 0.00 0.00 18 1009.3
20260508054337 21 328 0.0 0.0 0.00 0.00 0.00 18 1009.3